Theta_e
341 341 356 354 357 357 356 349 344 344 335 334 338 340 342 342 340 337 334 331 328 325 326 328 328 325 324 323 322 323 324 324
322 323 336 349 353 354 351 344 342 339 336 334 335 336 336 335 334 333 331 330 327 324 328 331 331 331 335 336 327 324 323 322
319 321 335 348 350 353 345 342 341 336 338 336 335 339 337 334 334 333 331 332 332 326 335 340 339 340 341 343 343 336 329 331
318 319 334 348 349 349 348 345 340 339 341 343 343 344 339 336 343 338 343 344 337 336 340 340 342 341 344 343 344 342 342 341
319 319 323 332 348 348 347 343 341 336 338 335 339 345 342 346 346 347 346 347 343 341 343 345 344 343 343 342 340 339 338 340
319 319 320 339 346 347 345 343 340 339 335 340 343 346 345 346 345 342 343 346 346 345 344 342 343 343 343 342 341 340 339 336
319 319 321 340 347 344 337 334 335 337 338 344 345 349 348 348 347 345 341 341 344 344 342 343 342 340 340 340 340 337 336 333
320 319 328 347 340 337 332 333 336 335 338 344 346 347 349 347 344 342 338 343 343 336 331 335 334 334 337 337 335 333 332 332
321 320 339 339 337 335 332 333 335 338 341 344 345 344 343 341 340 336 335 336 331 329 329 333 333 334 334 335 332 331 334 334
321 325 344 339 335 335 334 335 332 334 333 335 337 342 335 339 341 333 335 334 329 330 332 332 332 332 333 334 334 332 332 330
331 338 344 340 341 341 338 336 339 339 336 333 333 342 341 342 339 339 335 334 335 331 330 330 332 333 336 336 335 333 332 322
340 343 346 344 339 340 343 343 343 339 341 340 342 342 343 341 339 339 338 336 335 335 334 334 338 339 337 334 334 330 325 324
341 342 345 344 342 342 342 340 339 340 339 340 338 336 335 336 336 334 332 332 331 329 328 327 327 327 328 334 334 333 332 329
341 340 341 342 341 340 340 340 338 340 340 340 338 337 337 336 332 327 325 325 325 325 325 325 324 323 324 324 325 326 329 331
336 335 333 331 332 333 334 335 332 332 336 335 335 333 330 327 323 319 320 320 318 317 316 317 317 318 318 318 319 319 319 320
329 328 326 325 324 324 324 324 325 324 325 323 321 320 319 318 317 316 315 315 314 314 314 314 315 315 315 316 316 316 316 316
328 327 327 325 325 324 323 321 320 318 317 317 317 316 316 315 314 313 313 313 314 315 315 315 315 314 313 312 311 311 310 311
325 324 324 324 323 323 322 319 318 318 317 317 315 314 314 313 313 314 314 314 315 315 314 312 310 309 308 308 308 308 307 307
324 323 323 322 321 320 319 318 318 318 317 316 315 315 315 315 314 315 315 314 314 313 311 309 308 309 308 308 307 307 307 307
322 322 320 319 319 319 318 317 317 316 316 316 316 316 315 314 315 314 314 313 311 310 310 309 309 309 309 308 307 307 307 307
Wind_Speed
15 15 23 26 27 30 24 24 24 24 23 21 20 19 18 16 15 14 13 12 11 10 10 10 10 10 10 11 12 14 15 14
14 16 14 29 29 28 25 24 23 18 16 19 19 17 17 18 17 16 15 13 12 11 9 6 6 6 5 9 13 15 16 17
7 18 11 23 29 27 26 30 27 15 12 16 18 18 21 18 15 16 13 10 11 9 9 6 2 5 5 8 11 12 12 15
9 11 14 22 23 25 29 25 24 12 23 24 22 23 19 16 8 10 10 5 6 8 7 5 4 6 7 7 9 10 12 17
15 18 15 18 26 26 27 23 20 17 33 32 35 20 19 16 13 11 10 8 8 11 11 11 12 14 15 14 15 16 15 14
20 21 19 23 25 28 27 22 20 24 33 33 24 21 18 18 15 11 9 10 11 13 14 14 16 20 19 19 20 20 21 21
24 26 20 27 26 27 22 19 19 26 32 29 23 18 18 18 14 12 10 12 16 14 14 16 25 22 21 19 23 24 32 22
24 20 23 28 29 29 22 20 22 25 34 21 24 21 21 16 15 14 14 15 11 12 14 15 15 23 21 23 22 21 25 25
25 22 28 32 33 29 27 25 23 25 24 25 23 21 18 13 13 11 10 10 10 10 12 12 13 18 19 24 22 22 14 17
27 27 38 36 31 29 26 24 23 19 19 22 21 18 14 12 13 13 12 10 9 8 11 11 12 14 18 20 20 17 19 19
23 33 39 34 30 27 27 29 26 25 22 19 17 16 16 15 14 15 12 10 8 11 12 12 14 14 14 14 16 16 20 18
34 36 35 35 34 33 30 29 25 22 21 21 23 21 24 20 18 14 11 10 8 8 7 8 9 9 11 14 13 12 16 17
42 43 40 38 37 35 32 27 26 24 21 22 23 20 20 19 13 9 7 7 7 6 5 5 7 9 10 10 12 16 18 22
40 36 34 31 27 28 28 28 25 22 19 19 18 19 18 14 10 9 10 10 9 8 8 8 10 11 14 15 17 19 21 23
36 31 25 21 18 17 16 16 19 18 18 16 15 14 13 11 10 10 8 7 7 8 10 12 14 17 19 22 24 26 27 28
28 26 24 22 20 18 18 18 20 17 17 16 13 12 10 9 7 6 7 7 9 11 14 16 18 20 21 23 24 26 27 29
36 32 29 26 22 16 13 13 15 13 13 11 9 7 5 4 4 5 7 10 12 14 16 18 20 21 22 23 24 25 26 28
40 34 29 22 18 15 12 10 10 9 7 4 2 1 1 3 5 8 10 13 15 16 18 20 20 20 19 19 20 21 23 23
38 32 23 16 14 15 15 13 9 6 4 3 4 4 6 8 9 11 13 14 16 16 19 18 18 18 18 20 20 22 21 23
34 30 24 21 19 17 14 13 8 5 2 4 6 8 10 11 12 12 13 14 17 18 17 19 19 20 20 22 21 21 22 23
Wind_Direction
172 169 200 196 201 187 190 190 192 193 194 194 197 200 206 216 226 229 232 237 242 244 233 234 239 245 249 252 249 246 249 254
208 250 178 198 209 207 179 188 194 181 190 196 200 210 220 222 226 232 231 236 241 233 221 218 247 264 286 292 282 283 284 283
200 231 203 190 200 203 175 182 184 168 202 220 208 208 217 220 226 233 232 243 249 229 221 197 195 236 284 306 315 313 293 293
250 243 193 187 194 195 194 198 208 195 207 219 214 215 221 212 192 196 193 183 198 218 229 231 247 264 277 286 283 297 299 289
243 257 234 211 204 195 193 195 210 198 212 219 223 217 195 191 187 196 205 204 196 206 230 237 239 248 250 259 256 257 258 256
236 246 240 203 195 185 186 195 205 216 212 215 209 202 207 215 222 215 223 219 219 221 235 239 242 244 252 257 256 263 260 255
236 236 230 197 185 180 173 183 203 206 208 202 204 203 205 215 216 224 241 244 240 260 277 263 261 251 256 260 265 259 260 256
230 226 197 181 180 180 168 174 184 190 188 192 202 197 203 219 232 246 250 234 228 255 266 275 268 259 264 268 281 275 267 278
224 201 179 175 179 172 161 157 161 186 195 201 212 217 224 222 217 238 247 232 240 253 260 250 259 266 274 270 279 298 277 281
222 187 177 182 175 169 161 161 160 174 181 188 200 193 208 209 232 227 225 249 269 264 258 257 260 266 269 269 275 282 276 285
177 174 180 174 161 164 167 168 176 177 183 188 199 201 204 213 215 216 229 237 237 262 259 256 262 269 271 267 270 276 273 276
154 157 164 169 172 183 182 185 188 190 190 195 209 211 210 204 210 209 227 244 247 239 238 237 246 259 271 270 261 257 260 266
147 148 153 165 175 182 185 188 190 197 208 205 207 195 193 188 188 198 190 193 197 205 231 249 249 256 260 248 249 254 259 257
138 138 144 146 150 168 180 185 189 191 187 179 184 192 192 191 191 184 177 185 194 212 231 253 268 270 268 266 264 267 268 265
140 138 136 134 140 149 161 169 161 168 180 181 190 197 200 201 196 195 195 206 226 248 257 261 265 266 269 269 270 270 270 270
131 129 128 126 126 129 132 136 136 144 151 154 158 166 179 193 210 238 264 284 292 292 293 294 294 290 285 282 280 278 275 271
133 129 125 124 120 115 118 126 124 130 133 139 148 160 183 213 248 274 288 298 300 304 309 309 306 304 301 297 293 289 284 279
132 128 124 123 122 120 121 119 117 113 112 110 112 143 284 307 317 319 319 318 321 322 322 317 314 313 311 305 302 299 292 289
137 129 120 126 137 134 124 117 109 91 62 25 354 340 335 333 333 330 325 326 324 325 326 326 321 318 316 318 317 314 305 305
135 122 132 140 141 141 136 129 126 106 54 347 331 326 324 327 326 326 328 329 330 327 321 325 320 318 315 313 307 306 301 301